Location: Killam
(52.7910°N, 111.8608°W)
Time: 18:37:33
(UTC+00:00)

CUBEBUG 2 - Visible Passes

Search period start: 07 March 2026 00:00
Search period end: 17 March 2026 00:00
Orbit: 548 x 630 km, 97.9° (Epoch: 7 March)

Date Brightness Start Highest point End Pass type
(mag) Time Alt. Az. Time Alt. Az. Time Alt. Az.
7 Mar ? 10:32:25 10° N 10:33:52 20° N 10:33:52 20° N visible
8 Mar ? 09:04:54 10° NE 09:05:11 11° NE 09:05:11 11° NE visible
8 Mar ? 10:40:06 10° N 10:41:42 21° N 10:41:42 21° N visible
9 Mar ? 09:12:23 10° NNE 09:13:02 13° NE 09:13:02 13° NE visible
9 Mar ? 10:47:46 10° N 10:49:33 22° NNW 10:49:33 22° NNW visible
10 Mar ? 09:19:52 10° NNE 09:20:50 16° NE 09:20:50 16° NE visible
10 Mar ? 10:55:26 10° N 10:57:22 22° NNW 10:57:22 22° NNW visible
11 Mar ? 09:27:22 10° NNE 09:28:39 18° NE 09:28:39 18° NE visible
11 Mar ? 11:03:06 10° N 11:05:10 22° NNW 11:05:10 22° NNW visible
12 Mar ? 09:34:52 10° NNE 09:36:26 21° NNE 09:36:26 21° NNE visible
12 Mar ? 11:10:47 10° N 11:12:57 21° NNW 11:12:57 21° NNW visible
13 Mar ? 09:42:22 10° NNE 09:44:13 24° NNE 09:44:13 24° NNE visible
13 Mar ? 11:18:27 10° N 11:20:44 20° NW 11:20:44 20° NW visible
14 Mar ? 09:49:53 10° NNE 09:51:58 28° NNE 09:51:58 28° NNE visible
14 Mar ? 11:26:08 10° NNW 11:28:29 19° NW 11:28:29 19° NW visible
15 Mar ? 09:57:22 10° NNE 09:59:43 31° NNE 09:59:43 31° NNE visible
15 Mar ? 11:33:50 10° NNW 11:36:13 17° NW 11:36:13 17° NW visible
16 Mar ? 10:04:53 10° NNE 10:07:26 35° NNE 10:07:26 35° NNE visible
16 Mar ? 11:41:33 10° NNW 11:43:57 16° NW 11:43:57 16° NW visible
